QPF
0.00 0.00 0.00 0.00 0.00 0.00 0.00 0.00 0.00 0.00 0.00 0.00 0.00 0.00 0.00 0.00 0.00 0.00 0.00 0.00 0.00 0.00 0.00 0.00 0.01 0.01 0.02 0.01 0.01 0.02 0.02 0.01 0.01 0.02 0.03 0.03 0.04 0.05 0.05 0.05 0.05 0.07 0.07 0.08
0.00 0.00 0.00 0.00 0.00 0.00 0.00 0.00 0.00 0.00 0.00 0.00 0.00 0.00 0.00 0.00 0.00 0.00 0.00 0.00 0.00 0.01 0.01 0.00 0.00 0.01 0.03 0.02 0.01 0.02 0.03 0.03 0.02 0.03 0.04 0.06 0.08 0.10 0.11 0.11 0.09 0.08 0.09 0.09
0.00 0.00 0.00 0.00 0.00 0.00 0.00 0.00 0.00 0.00 0.00 0.00 0.00 0.00 0.00 0.00 0.00 0.00 0.00 0.00 0.00 0.00 0.01 0.02 0.03 0.03 0.04 0.04 0.03 0.04 0.08 0.08 0.06 0.07 0.09 0.12 0.14 0.15 0.15 0.13 0.12 0.10 0.08 0.07
0.00 0.00 0.00 0.00 0.00 0.00 0.00 0.00 0.00 0.00 0.00 0.00 0.00 0.00 0.00 0.00 0.00 0.00 0.00 0.00 0.00 0.00 0.00 0.01 0.06 0.07 0.04 0.06 0.06 0.09 0.13 0.14 0.12 0.11 0.12 0.14 0.14 0.13 0.13 0.13 0.13 0.11 0.08 0.07
0.00 0.00 0.00 0.00 0.00 0.00 0.00 0.00 0.00 0.00 0.00 0.00 0.00 0.00 0.00 0.00 0.00 0.00 0.00 0.00 0.00 0.00 0.00 0.00 0.02 0.05 0.03 0.04 0.06 0.10 0.14 0.15 0.15 0.15 0.15 0.12 0.11 0.12 0.14 0.13 0.10 0.07 0.06 0.05
0.00 0.00 0.00 0.00 0.00 0.00 0.00 0.00 0.00 0.00 0.00 0.00 0.00 0.00 0.00 0.00 0.00 0.00 0.00 0.00 0.00 0.00 0.00 0.01 0.01 0.01 0.02 0.07 0.10 0.09 0.11 0.14 0.18 0.20 0.18 0.15 0.13 0.13 0.14 0.13 0.07 0.05 0.05 0.05
0.00 0.00 0.00 0.00 0.00 0.00 0.00 0.00 0.00 0.00 0.00 0.00 0.00 0.00 0.01 0.01 0.00 0.00 0.00 0.01 0.01 0.01 0.01 0.01 0.01 0.01 0.02 0.04 0.06 0.06 0.06 0.08 0.12 0.16 0.18 0.18 0.17 0.16 0.13 0.11 0.08 0.05 0.04 0.03
0.00 0.00 0.00 0.00 0.00 0.00 0.00 0.00 0.00 0.00 0.00 0.00 0.00 0.00 0.02 0.01 0.00 0.00 0.00 0.01 0.01 0.01 0.01 0.01 0.01 0.02 0.02 0.03 0.04 0.04 0.05 0.07 0.09 0.12 0.15 0.15 0.15 0.15 0.12 0.09 0.05 0.03 0.02 0.01
0.00 0.00 0.00 0.00 0.00 0.00 0.00 0.00 0.00 0.00 0.00 0.00 0.00 0.01 0.02 0.01 0.01 0.01 0.01 0.01 0.01 0.01 0.01 0.02 0.02 0.02 0.02 0.03 0.03 0.03 0.04 0.06 0.08 0.10 0.12 0.11 0.10 0.08 0.06 0.03 0.01 0.01 0.00 0.00
0.00 0.01 0.00 0.00 0.00 0.00 0.00 0.00 0.00 0.00 0.00 0.00 0.00 0.01 0.03 0.03 0.02 0.02 0.01 0.01 0.01 0.02 0.02 0.02 0.02 0.03 0.03 0.03 0.03 0.04 0.04 0.05 0.06 0.07 0.07 0.06 0.04 0.03 0.02 0.01 0.00 0.00 0.00 0.00
0.00 0.01 0.01 0.00 0.00 0.00 0.00 0.00 0.00 0.00 0.00 0.00 0.00 0.04 0.06 0.07 0.07 0.05 0.04 0.01 0.01 0.01 0.02 0.02 0.02 0.03 0.03 0.03 0.04 0.06 0.06 0.06 0.05 0.05 0.04 0.03 0.02 0.01 0.00 0.00 0.00 0.00 0.00 0.00
0.00 0.00 0.02 0.01 0.00 0.00 0.00 0.00 0.00 0.00 0.00 0.00 0.01 0.08 0.08 0.16 0.19 0.13 0.06 0.02 0.02 0.01 0.01 0.02 0.02 0.03 0.03 0.04 0.05 0.05 0.04 0.04 0.04 0.03 0.03 0.02 0.01 0.01 0.00 0.00 0.00 0.00 0.00 0.00
0.00 0.01 0.03 0.03 0.02 0.01 0.00 0.00 0.00 0.00 0.00 0.00 0.01 0.11 0.13 0.19 0.21 0.12 0.05 0.03 0.02 0.02 0.02 0.03 0.03 0.03 0.03 0.03 0.03 0.02 0.02 0.02 0.02 0.01 0.01 0.01 0.00 0.00 0.00 0.00 0.00 0.00 0.00 0.00
0.00 0.01 0.05 0.13 0.10 0.04 0.01 0.01 0.00 0.00 0.01 0.01 0.03 0.11 0.13 0.14 0.14 0.10 0.06 0.03 0.03 0.03 0.03 0.03 0.03 0.03 0.02 0.02 0.02 0.02 0.01 0.01 0.01 0.00 0.00 0.00 0.01 0.01 0.01 0.01 0.00 0.00 0.00 0.00
0.00 0.01 0.02 0.06 0.05 0.05 0.05 0.03 0.02 0.01 0.01 0.02 0.07 0.13 0.18 0.20 0.22 0.16 0.09 0.06 0.05 0.04 0.04 0.04 0.03 0.03 0.02 0.02 0.02 0.01 0.01 0.01 0.00 0.00 0.00 0.01 0.01 0.00 0.00 0.00 0.00 0.00 0.00 0.00
0.01 0.02 0.02 0.03 0.04 0.05 0.05 0.05 0.03 0.02 0.03 0.05 0.09 0.19 0.28 0.34 0.36 0.25 0.15 0.10 0.09 0.08 0.06 0.05 0.04 0.03 0.03 0.02 0.02 0.01 0.01 0.01 0.01 0.01 0.01 0.01 0.01 0.00 0.00 0.00 0.00 0.00 0.00 0.00
0.01 0.02 0.03 0.03 0.02 0.02 0.06 0.06 0.04 0.05 0.07 0.09 0.12 0.19 0.24 0.27 0.28 0.25 0.21 0.17 0.14 0.13 0.11 0.10 0.09 0.07 0.06 0.05 0.04 0.03 0.03 0.02 0.02 0.01 0.01 0.01 0.00 0.00 0.00 0.00 0.00 0.01 0.00 0.00
0.01 0.03 0.02 0.03 0.06 0.11 0.11 0.06 0.05 0.09 0.08 0.10 0.15 0.18 0.21 0.20 0.17 0.17 0.19 0.20 0.22 0.22 0.22 0.21 0.18 0.16 0.13 0.10 0.07 0.05 0.03 0.02 0.01 0.01 0.00 0.00 0.00 0.00 0.00 0.00 0.01 0.01 0.01 0.01
0.01 0.03 0.05 0.05 0.07 0.13 0.17 0.07 0.06 0.13 0.13 0.12 0.10 0.10 0.11 0.11 0.11 0.12 0.13 0.15 0.19 0.20 0.20 0.18 0.16 0.14 0.12 0.10 0.07 0.05 0.03 0.01 0.01 0.00 0.00 0.01 0.01 0.01 0.01 0.01 0.01 0.01 0.01 0.01
0.00 0.02 0.05 0.06 0.08 0.14 0.18 0.07 0.04 0.09 0.12 0.10 0.11 0.10 0.11 0.12 0.12 0.11 0.11 0.13 0.14 0.14 0.13 0.11 0.10 0.08 0.06 0.05 0.04 0.02 0.01 0.01 0.01 0.01 0.01 0.01 0.01 0.01 0.01 0.01 0.02 0.02 0.02 0.02
0.03 0.04 0.06 0.07 0.10 0.11 0.04 0.01 0.03 0.10 0.13 0.12 0.15 0.16 0.14 0.13 0.12 0.09 0.08 0.09 0.09 0.08 0.07 0.06 0.05 0.04 0.04 0.03 0.02 0.01 0.01 0.01 0.01 0.01 0.01 0.01 0.01 0.01 0.01 0.01 0.02 0.02 0.02 0.02
0.03 0.05 0.07 0.08 0.10 0.10 0.03 0.01 0.03 0.05 0.08 0.09 0.11 0.09 0.08 0.07 0.06 0.05 0.05 0.05 0.05 0.05 0.05 0.04 0.04 0.03 0.02 0.01 0.02 0.02 0.01 0.01 0.01 0.01 0.01 0.01 0.00 0.00 0.00 0.02 0.03 0.03 0.02 0.02
0.02 0.03 0.05 0.06 0.08 0.06 0.02 0.01 0.01 0.03 0.05 0.07 0.06 0.04 0.02 0.02 0.03 0.03 0.04 0.03 0.03 0.03 0.03 0.03 0.02 0.02 0.02 0.02 0.02 0.02 0.01 0.01 0.01 0.01 0.01 0.01 0.01 0.01 0.01 0.01 0.03 0.02 0.02 0.03
0.02 0.02 0.03 0.05 0.06 0.04 0.02 0.01 0.01 0.02 0.03 0.05 0.06 0.03 0.02 0.02 0.02 0.02 0.03 0.03 0.02 0.02 0.02 0.02 0.02 0.02 0.02 0.02 0.02 0.02 0.01 0.01 0.02 0.03 0.02 0.02 0.02 0.03 0.02 0.03 0.02 0.02 0.02 0.02
0.02 0.03 0.05 0.06 0.08 0.05 0.03 0.01 0.02 0.03 0.03 0.04 0.03 0.02 0.02 0.01 0.01 0.02 0.02 0.02 0.02 0.02 0.02 0.02 0.01 0.01 0.01 0.01 0.01 0.01 0.01 0.01 0.02 0.02 0.02 0.03 0.03 0.02 0.03 0.04 0.02 0.01 0.01 0.00
0.00 0.02 0.04 0.06 0.06 0.06 0.04 0.02 0.03 0.05 0.04 0.02 0.02 0.02 0.02 0.02 0.01 0.02 0.02 0.02 0.02 0.01 0.01 0.01 0.01 0.01 0.01 0.00 0.00 0.00 0.00 0.00 0.01 0.02 0.02 0.01 0.01 0.01 0.01 0.02 0.02 0.01 0.00 0.00
MSLP
1008.74 1008.99 1008.97 1008.72 1008.31 1007.84 1007.38 1007.01 1006.74 1006.56 1006.43 1006.27 1006.03 1005.66 1005.14 1004.50 1003.80 1003.10 1002.47 1001.99 1001.69 1001.59 1001.71 1002.01 1002.47 1003.06 1003.76 1004.54 1005.40 1006.31 1007.26 1008.23 1009.19 1010.10 1010.94 1011.69 1012.35 1012.90 1013.38 1013.79 1014.18 1014.55 1014.93 1015.33
1008.86 1009.02 1008.94 1008.66 1008.27 1007.84 1007.43 1007.11 1006.87 1006.69 1006.52 1006.30 1005.98 1005.54 1004.99 1004.36 1003.71 1003.13 1002.66 1002.35 1002.21 1002.26 1002.46 1002.79 1003.21 1003.70 1004.25 1004.86 1005.55 1006.31 1007.16 1008.07 1009.01 1009.95 1010.85 1011.68 1012.42 1013.06 1013.60 1014.06 1014.48 1014.88 1015.28 1015.68
1008.68 1008.76 1008.65 1008.40 1008.08 1007.76 1007.48 1007.27 1007.11 1006.96 1006.78 1006.50 1006.12 1005.62 1005.04 1004.44 1003.88 1003.44 1003.16 1003.06 1003.14 1003.35 1003.67 1004.03 1004.40 1004.78 1005.16 1005.57 1006.04 1006.61 1007.30 1008.09 1008.97 1009.90 1010.83 1011.71 1012.52 1013.22 1013.82 1014.34 1014.81 1015.24 1015.66 1016.08
1008.22 1008.22 1008.11 1007.93 1007.75 1007.60 1007.51 1007.47 1007.44 1007.37 1007.20 1006.91 1006.48 1005.95 1005.36 1004.80 1004.35 1004.07 1003.99 1004.12 1004.42 1004.82 1005.25 1005.66 1005.99 1006.25 1006.45 1006.64 1006.89 1007.24 1007.73 1008.38 1009.16 1010.03 1010.95 1011.85 1012.69 1013.45 1014.11 1014.68 1015.18 1015.64 1016.08 1016.52
1007.57 1007.51 1007.41 1007.33 1007.31 1007.37 1007.50 1007.67 1007.80 1007.84 1007.74 1007.46 1007.02 1006.48 1005.91 1005.42 1005.08 1004.97 1005.10 1005.44 1005.95 1006.52 1007.07 1007.52 1007.83 1007.98 1008.02 1008.01 1008.04 1008.17 1008.46 1008.95 1009.60 1010.40 1011.27 1012.16 1013.01 1013.80 1014.49 1015.09 1015.62 1016.11 1016.56 1017.00
1006.88 1006.74 1006.66 1006.67 1006.81 1007.08 1007.43 1007.80 1008.11 1008.28 1008.26 1008.03 1007.63 1007.12 1006.60 1006.19 1005.98 1006.03 1006.35 1006.90 1007.59 1008.31 1008.96 1009.45 1009.73 1009.80 1009.71 1009.53 1009.37 1009.31 1009.43 1009.76 1010.30 1011.00 1011.81 1012.66 1013.50 1014.29 1014.99 1015.60 1016.15 1016.64 1017.09 1017.52
1006.27 1006.06 1005.98 1006.06 1006.33 1006.75 1007.28 1007.82 1008.28 1008.57 1008.65 1008.49 1008.15 1007.72 1007.29 1006.99 1006.92 1007.13 1007.62 1008.33 1009.16 1010.01 1010.73 1011.25 1011.51 1011.52 1011.34 1011.05 1010.75 1010.56 1010.55 1010.76 1011.19 1011.80 1012.54 1013.35 1014.15 1014.91 1015.60 1016.20 1016.73 1017.21 1017.65 1018.06
1005.85 1005.57 1005.47 1005.58 1005.91 1006.43 1007.06 1007.70 1008.26 1008.64 1008.79 1008.73 1008.48 1008.15 1007.84 1007.69 1007.77 1008.13 1008.76 1009.60 1010.54 1011.46 1012.23 1012.76 1013.01 1012.99 1012.75 1012.40 1012.04 1011.77 1011.69 1011.82 1012.19 1012.74 1013.42 1014.17 1014.93 1015.64 1016.28 1016.85 1017.35 1017.80 1018.21 1018.59
1005.70 1005.35 1005.21 1005.30 1005.63 1006.15 1006.79 1007.45 1008.03 1008.45 1008.66 1008.68 1008.54 1008.35 1008.19 1008.20 1008.44 1008.95 1009.70 1010.63 1011.63 1012.59 1013.37 1013.90 1014.13 1014.10 1013.85 1013.49 1013.12 1012.85 1012.76 1012.88 1013.22 1013.73 1014.37 1015.06 1015.76 1016.42 1017.01 1017.52 1017.97 1018.38 1018.75 1019.10
1005.81 1005.42 1005.22 1005.26 1005.52 1005.97 1006.53 1007.13 1007.66 1008.06 1008.31 1008.39 1008.37 1008.33 1008.35 1008.53 1008.93 1009.58 1010.43 1011.42 1012.44 1013.39 1014.15 1014.65 1014.88 1014.84 1014.62 1014.30 1013.98 1013.76 1013.72 1013.87 1014.22 1014.72 1015.33 1015.98 1016.62 1017.21 1017.73 1018.18 1018.57 1018.92 1019.25 1019.56
1006.16 1005.75 1005.52 1005.49 1005.65 1005.96 1006.39 1006.85 1007.27 1007.62 1007.85 1008.00 1008.09 1008.20 1008.40 1008.76 1009.32 1010.09 1011.01 1012.03 1013.04 1013.94 1014.65 1015.12 1015.32 1015.30 1015.12 1014.87 1014.64 1014.52 1014.56 1014.78 1015.17 1015.69 1016.27 1016.88 1017.46 1017.98 1018.42 1018.80 1019.12 1019.42 1019.71 1020.00
1006.67 1006.30 1006.06 1005.97 1006.01 1006.19 1006.44 1006.73 1007.02 1007.28 1007.49 1007.67 1007.87 1008.13 1008.50 1009.04 1009.74 1010.61 1011.58 1012.59 1013.56 1014.40 1015.04 1015.44 1015.62 1015.61 1015.49 1015.33 1015.21 1015.20 1015.35 1015.65 1016.09 1016.62 1017.20 1017.76 1018.27 1018.72 1019.08 1019.39 1019.65 1019.90 1020.16 1020.42
1007.27 1006.99 1006.78 1006.66 1006.63 1006.67 1006.77 1006.90 1007.05 1007.21 1007.39 1007.61 1007.90 1008.29 1008.81 1009.50 1010.32 1011.26 1012.26 1013.24 1014.14 1014.89 1015.44 1015.78 1015.93 1015.94 1015.87 1015.79 1015.78 1015.89 1016.14 1016.52 1017.00 1017.55 1018.10 1018.62 1019.06 1019.43 1019.72 1019.96 1020.16 1020.37 1020.60 1020.85
1007.91 1007.75 1007.63 1007.53 1007.46 1007.41 1007.39 1007.40 1007.44 1007.52 1007.68 1007.92 1008.29 1008.79 1009.44 1010.24 1011.15 1012.13 1013.13 1014.06 1014.88 1015.53 1015.99 1016.27 1016.38 1016.39 1016.37 1016.37 1016.45 1016.65 1016.98 1017.42 1017.93 1018.47 1018.98 1019.44 1019.82 1020.11 1020.33 1020.50 1020.66 1020.83 1021.04 1021.28
1008.53 1008.54 1008.53 1008.50 1008.45 1008.38 1008.30 1008.23 1008.20 1008.24 1008.38 1008.65 1009.07 1009.66 1010.40 1011.28 1012.25 1013.24 1014.21 1015.08 1015.81 1016.37 1016.74 1016.94 1017.02 1017.03 1017.04 1017.09 1017.24 1017.51 1017.88 1018.35 1018.86 1019.37 1019.83 1020.23 1020.53 1020.75 1020.90 1021.02 1021.14 1021.28 1021.47 1021.70
1009.13 1009.29 1009.42 1009.50 1009.52 1009.47 1009.39 1009.30 1009.25 1009.28 1009.43 1009.73 1010.20 1010.84 1011.64 1012.56 1013.54 1014.52 1015.44 1016.24 1016.89 1017.35 1017.64 1017.79 1017.84 1017.84 1017.87 1017.96 1018.14 1018.43 1018.82 1019.27 1019.75 1020.21 1020.61 1020.93 1021.17 1021.32 1021.41 1021.49 1021.57 1021.69 1021.86 1022.09
1009.68 1009.99 1010.26 1010.45 1010.56 1010.59 1010.55 1010.49 1010.46 1010.51 1010.68 1011.01 1011.52 1012.19 1013.02 1013.94 1014.91 1015.86 1016.72 1017.45 1018.01 1018.40 1018.63 1018.73 1018.76 1018.76 1018.79 1018.89 1019.08 1019.36 1019.73 1020.14 1020.56 1020.95 1021.28 1021.52 1021.69 1021.78 1021.83 1021.87 1021.93 1022.03 1022.19 1022.40
1010.19 1010.60 1010.99 1011.29 1011.50 1011.61 1011.65 1011.65 1011.66 1011.75 1011.96 1012.32 1012.85 1013.54 1014.36 1015.27 1016.21 1017.10 1017.90 1018.57 1019.06 1019.40 1019.58 1019.65 1019.66 1019.66 1019.69 1019.78 1019.96 1020.22 1020.54 1020.89 1021.23 1021.54 1021.79 1021.97 1022.07 1022.12 1022.14 1022.16 1022.20 1022.29 1022.44 1022.63
1010.65 1011.13 1011.58 1011.97 1012.26 1012.46 1012.57 1012.64 1012.72 1012.86 1013.11 1013.49 1014.03 1014.72 1015.53 1016.40 1017.29 1018.13 1018.87 1019.48 1019.93 1020.23 1020.39 1020.45 1020.46 1020.46 1020.48 1020.56 1020.71 1020.92 1021.19 1021.46 1021.73 1021.96 1022.14 1022.26 1022.32 1022.34 1022.34 1022.35 1022.39 1022.47 1022.60 1022.77
1011.09 1011.58 1012.06 1012.49 1012.84 1013.10 1013.28 1013.41 1013.55 1013.74 1014.02 1014.43 1014.97 1015.65 1016.42 1017.25 1018.09 1018.88 1019.57 1020.14 1020.56 1020.84 1020.99 1021.06 1021.07 1021.08 1021.10 1021.17 1021.29 1021.45 1021.65 1021.86 1022.06 1022.23 1022.35 1022.42 1022.45 1022.46 1022.46 1022.47 1022.51 1022.59 1022.71 1022.86
1011.51 1011.98 1012.45 1012.89 1013.26 1013.55 1013.78 1013.96 1014.15 1014.38 1014.70 1015.12 1015.66 1016.31 1017.04 1017.83 1018.61 1019.35 1020.00 1020.53 1020.93 1021.21 1021.37 1021.45 1021.48 1021.50 1021.53 1021.59 1021.68 1021.81 1021.96 1022.11 1022.25 1022.37 1022.45 1022.50 1022.52 1022.53 1022.54 1022.56 1022.61 1022.69 1022.81 1022.95
1011.92 1012.35 1012.79 1013.21 1013.58 1013.88 1014.14 1014.36 1014.58 1014.85 1015.18 1015.60 1016.13 1016.75 1017.45 1018.18 1018.92 1019.60 1020.21 1020.71 1021.10 1021.38 1021.56 1021.66 1021.72 1021.75 1021.79 1021.84 1021.92 1022.02 1022.13 1022.25 1022.35 1022.44 1022.50 1022.54 1022.57 1022.60 1022.62 1022.66 1022.73 1022.82 1022.93 1023.06
1012.34 1012.72 1013.12 1013.51 1013.87 1014.18 1014.45 1014.70 1014.95 1015.23 1015.57 1016.00 1016.50 1017.09 1017.74 1018.42 1019.10 1019.73 1020.30 1020.77 1021.15 1021.43 1021.61 1021.74 1021.82 1021.87 1021.92 1021.98 1022.05 1022.13 1022.23 1022.32 1022.40 1022.48 1022.54 1022.59 1022.63 1022.67 1022.73 1022.79 1022.88 1022.98 1023.09 1023.22
1012.75 1013.10 1013.48 1013.85 1014.20 1014.51 1014.80 1015.07 1015.34 1015.63 1015.98 1016.40 1016.88 1017.43 1018.02 1018.64 1019.25 1019.83 1020.35 1020.79 1021.14 1021.41 1021.61 1021.75 1021.84 1021.92 1021.98 1022.05 1022.12 1022.19 1022.27 1022.36 1022.43 1022.51 1022.57 1022.64 1022.70 1022.77 1022.85 1022.94 1023.04 1023.16 1023.29 1023.42
1013.14 1013.49 1013.86 1014.23 1014.59 1014.93 1015.23 1015.53 1015.82 1016.13 1016.48 1016.88 1017.33 1017.83 1018.37 1018.92 1019.46 1019.97 1020.43 1020.82 1021.15 1021.40 1021.59 1021.73 1021.84 1021.93 1022.00 1022.07 1022.14 1022.22 1022.30 1022.37 1022.45 1022.53 1022.60 1022.68 1022.76 1022.85 1022.96 1023.07 1023.20 1023.34 1023.48 1023.63
1013.48 1013.85 1014.25 1014.65 1015.04 1015.41 1015.76 1016.08 1016.40 1016.73 1017.08 1017.46 1017.87 1018.32 1018.79 1019.27 1019.74 1020.17 1020.57 1020.91 1021.20 1021.42 1021.60 1021.74 1021.84 1021.93 1022.01 1022.08 1022.15 1022.22 1022.29 1022.36 1022.43 1022.51 1022.59 1022.67 1022.77 1022.88 1023.01 1023.15 1023.30 1023.47 1023.64 1023.80
Thickness
5715 5710 5712 5727 5739 5744 5754 5761 5769 5786 5807 5791 5783 5787 5801 5819 5822 5821 5824 5827 5830 5829 5833 5835 5832 5824 5819 5813 5809 5804 5797 5792 5785 5777 5769 5762 5757 5753 5749 5744 5739 5735 5730 5726
5703 5704 5722 5736 5744 5744 5745 5746 5760 5784 5800 5786 5777 5781 5799 5812 5816 5818 5817 5818 5818 5815 5814 5820 5819 5813 5809 5804 5803 5798 5793 5787 5781 5774 5768 5761 5754 5747 5741 5735 5730 5725 5721 5717
5697 5715 5728 5727 5730 5733 5736 5739 5751 5765 5782 5780 5768 5765 5782 5800 5811 5812 5813 5812 5811 5806 5801 5802 5803 5799 5800 5797 5796 5794 5789 5782 5775 5769 5760 5752 5744 5737 5730 5724 5719 5714 5710 5707
5704 5721 5725 5722 5722 5728 5725 5744 5749 5753 5754 5755 5760 5742 5770 5787 5791 5794 5796 5798 5797 5794 5791 5790 5786 5783 5786 5788 5788 5787 5781 5774 5768 5761 5752 5744 5736 5727 5721 5715 5709 5704 5700 5695
5702 5716 5718 5716 5724 5730 5730 5745 5745 5744 5742 5741 5753 5745 5765 5789 5776 5778 5780 5780 5776 5774 5773 5772 5771 5770 5771 5773 5774 5773 5768 5760 5755 5750 5743 5735 5728 5720 5712 5706 5699 5693 5688 5683
5709 5726 5727 5726 5733 5735 5736 5734 5734 5737 5734 5718 5738 5739 5752 5777 5778 5770 5763 5759 5756 5755 5755 5755 5755 5755 5755 5757 5756 5753 5750 5744 5740 5735 5730 5723 5716 5709 5701 5694 5687 5681 5675 5671
5697 5712 5727 5732 5721 5726 5726 5712 5699 5701 5706 5717 5747 5742 5750 5766 5771 5759 5747 5741 5739 5739 5737 5735 5734 5735 5735 5736 5734 5732 5730 5725 5723 5719 5714 5709 5703 5696 5689 5682 5676 5670 5663 5658
5683 5691 5717 5725 5719 5716 5718 5713 5695 5694 5707 5728 5752 5746 5747 5754 5752 5745 5737 5730 5726 5722 5720 5716 5715 5715 5715 5716 5715 5714 5712 5707 5705 5701 5697 5693 5688 5682 5674 5668 5662 5656 5650 5645
5678 5688 5719 5727 5730 5724 5716 5714 5724 5713 5716 5716 5737 5739 5728 5738 5731 5726 5721 5715 5708 5703 5701 5698 5697 5697 5697 5697 5697 5696 5695 5691 5688 5684 5680 5676 5670 5665 5659 5653 5648 5642 5637 5632
5687 5680 5705 5721 5726 5726 5725 5725 5715 5705 5695 5698 5723 5725 5717 5716 5712 5708 5702 5695 5689 5685 5683 5681 5681 5681 5680 5681 5680 5680 5678 5675 5671 5668 5664 5659 5654 5649 5644 5638 5633 5628 5623 5618
5690 5676 5687 5705 5705 5708 5711 5712 5713 5712 5714 5702 5702 5702 5724 5715 5705 5694 5687 5680 5674 5670 5667 5666 5666 5667 5667 5666 5665 5663 5661 5658 5655 5651 5647 5642 5637 5633 5628 5622 5617 5612 5608 5603
5685 5680 5672 5686 5711 5721 5718 5714 5710 5694 5698 5709 5705 5688 5716 5706 5692 5679 5669 5664 5660 5657 5655 5654 5654 5653 5653 5652 5650 5648 5646 5642 5638 5635 5631 5626 5622 5617 5612 5607 5601 5596 5592 5587
5672 5668 5658 5666 5684 5698 5700 5710 5712 5710 5704 5700 5696 5679 5694 5684 5673 5664 5655 5650 5647 5645 5643 5642 5641 5640 5639 5637 5636 5634 5631 5627 5623 5619 5615 5610 5606 5601 5596 5591 5586 5581 5576 5571
5671 5664 5653 5637 5640 5654 5668 5685 5697 5698 5692 5691 5693 5676 5674 5666 5657 5649 5642 5637 5634 5632 5630 5629 5627 5625 5624 5623 5620 5618 5615 5612 5608 5603 5598 5593 5588 5583 5579 5574 5569 5565 5560 5556
5668 5659 5657 5651 5656 5657 5661 5672 5682 5682 5689 5684 5679 5670 5663 5655 5648 5638 5631 5626 5622 5620 5618 5615 5613 5611 5609 5607 5605 5602 5598 5595 5591 5586 5580 5574 5570 5566 5561 5557 5552 5547 5543 5539
5661 5653 5656 5652 5657 5660 5658 5661 5666 5670 5674 5673 5667 5650 5647 5640 5633 5624 5619 5615 5610 5606 5602 5600 5598 5596 5593 5591 5588 5585 5581 5577 5573 5568 5563 5558 5554 5549 5545 5540 5535 5530 5525 5521
5651 5647 5644 5648 5660 5659 5646 5644 5650 5651 5653 5654 5642 5630 5628 5621 5614 5608 5605 5601 5597 5591 5587 5583 5580 5578 5575 5572 5570 5566 5563 5559 5555 5551 5546 5541 5537 5533 5528 5525 5519 5514 5508 5504
5643 5642 5642 5645 5644 5624 5625 5644 5646 5639 5634 5635 5626 5616 5611 5603 5597 5593 5590 5586 5581 5577 5573 5568 5565 5562 5558 5555 5553 5550 5547 5543 5538 5534 5530 5526 5521 5516 5511 5507 5502 5498 5492 5487
5649 5638 5635 5635 5631 5621 5617 5625 5630 5626 5613 5616 5612 5604 5598 5594 5587 5576 5573 5572 5568 5563 5559 5555 5553 5549 5546 5542 5539 5536 5532 5528 5524 5520 5516 5512 5507 5501 5497 5492 5487 5482 5477 5472
5650 5644 5632 5629 5618 5603 5600 5619 5630 5624 5599 5603 5602 5596 5593 5591 5579 5563 5559 5557 5554 5551 5548 5544 5542 5538 5534 5531 5528 5524 5520 5516 5512 5508 5503 5498 5493 5488 5483 5477 5472 5467 5462 5457
5632 5632 5626 5620 5609 5597 5605 5620 5626 5601 5585 5593 5593 5589 5587 5580 5570 5556 5550 5547 5544 5541 5537 5535 5532 5528 5524 5520 5517 5513 5508 5504 5500 5495 5490 5484 5479 5475 5470 5464 5458 5453 5448 5443
5621 5617 5613 5610 5598 5587 5602 5608 5595 5584 5588 5586 5583 5579 5573 5565 5556 5548 5542 5538 5534 5531 5528 5525 5522 5517 5514 5511 5507 5502 5497 5492 5488 5483 5478 5473 5468 5463 5458 5451 5445 5440 5435 5430
5620 5612 5608 5599 5589 5591 5594 5591 5588 5587 5581 5577 5573 5568 5562 5554 5547 5540 5534 5530 5526 5523 5519 5516 5513 5509 5505 5501 5497 5492 5487 5483 5478 5473 5468 5462 5457 5451 5445 5439 5434 5429 5424 5420
5619 5618 5609 5597 5590 5590 5588 5585 5582 5579 5574 5570 5565 5559 5553 5545 5539 5532 5527 5523 5519 5516 5512 5509 5507 5502 5497 5493 5489 5484 5479 5474 5469 5464 5459 5453 5447 5442 5435 5429 5425 5420 5414 5410
5612 5611 5603 5594 5589 5585 5581 5578 5574 5570 5566 5561 5556 5551 5544 5538 5531 5525 5520 5516 5513 5510 5507 5504 5500 5495 5491 5486 5482 5477 5472 5466 5461 5456 5451 5447 5442 5436 5430 5423 5414 5411 5402 5397
5612 5604 5596 5585 5586 5581 5572 5570 5567 5561 5556 5552 5547 5541 5535 5530 5524 5519 5515 5511 5508 5505 5501 5497 5493 5489 5485 5480 5475 5470 5465 5460 5455 5450 5446 5442 5438 5433 5428 5420 5411 5402 5397 5392